Tracking 18980 objects as of 18-Feb-2018
HD Live streaming from Space Station
objects crossing your sky now

OXP 1

Track OXP 1 now!
10-day predictions
OXP 1 is classified as:


NORAD ID: 22489
Int'l Code: 1993-009A
Perigee: 720.3 km
Apogee: 778.8 km
Inclination: 25.0 °
Period: 99.7 minutes
Semi major axis: 7120 km
RCS: 1.9581 m2 (large)
Launch date: February 9, 1993
Source: United States (US)
Launch site: AIR FORCE EASTERN TEST RANGE (AFETR)
aabbcc
Your satellite tracking list
Your tracking list is empty




NASA's NSSDC Master Catalog

Two Line Element Set (TLE):
1 22489U 93009A   18048.68977213  .00000232  00000-0  13704-4 0  9996
2 22489  24.9637 235.7369 0041094  50.5479 309.8655 14.44889100321079
Source of the keplerian elements: AFSPC